Location: ?
(35.4064°N, 139.3593°E)
Time: 03:33:37
(UTC+00:00)

YAOGAN 11 - Pass Details

Date: 18 April 2024
Orbit: 606 x 659 km, 98.4° (Epoch: 23 May)

Event Time Altitude Azimuth Distance (km) Brightness Sun altitude
Rises 19:19:11 0° 162° (SSE) 2,945 7.5 -9.7°
Reaches altitude 10° 19:21:22 10° 161° (SSE) 2,046 6.7 -9.3°
Maximum altitude 19:25:50 77° 76° (ENE) 675 4.4 -8.5°
Drops below altitude 10° 19:30:22 10° 350° (N) 2,078 6.9 -7.6°
Sets 19:32:36 0° 349° (N) 2,996 7.7 -7.2°
